Wind_Speed
18 17 17 16 17 18 19 20 20 20 20 19 19 16 13 10 8 8 6 6 8 9 8 8 7 7 6 5 5 5 6 6 4 4 8 10 10 9 7 8 9 6 7
19 21 19 17 17 17 17 18 18 19 20 21 20 18 16 14 11 10 11 9 9 7 6 6 6 7 7 6 4 3 4 6 5 5 8 9 9 10 8 8 9 8 8
19 19 20 19 19 18 15 15 16 15 17 19 20 20 17 16 14 12 11 12 11 11 8 8 6 4 7 6 5 5 4 5 7 6 6 10 10 12 11 10 9 10 8
19 18 19 20 19 18 17 15 13 13 14 14 16 17 17 16 14 14 13 11 11 10 7 7 6 5 5 5 6 6 6 6 7 7 7 7 9 9 13 11 9 10 10
18 19 21 20 19 19 18 17 15 12 12 12 13 13 16 16 17 17 16 14 11 11 9 7 6 6 6 6 6 5 6 6 7 8 5 5 6 6 11 9 11 9 9
17 19 21 23 24 24 23 23 19 15 13 12 11 12 13 16 17 17 16 15 13 11 12 10 8 6 5 6 7 6 6 7 7 8 9 8 10 9 11 11 10 5 3
17 19 22 24 25 27 26 24 23 23 18 15 12 12 11 13 14 16 17 17 15 13 11 11 10 7 5 5 5 5 5 6 6 6 8 10 10 10 10 11 13 9 5
20 21 23 25 26 27 28 27 25 24 23 21 16 13 13 10 12 13 14 15 15 14 10 10 10 9 6 5 5 5 5 6 6 6 6 7 7 8 9 10 10 11 8
25 27 27 26 27 28 28 28 27 26 25 23 20 17 16 13 12 12 12 13 14 14 11 8 9 9 7 5 6 6 7 7 6 5 5 5 4 5 5 7 8 10 2
26 30 29 28 27 28 27 28 27 24 25 24 23 19 17 18 13 12 11 12 13 15 13 10 7 9 9 5 6 8 9 7 4 4 4 4 3 2 3 4 7 9 2
28 30 28 30 29 27 27 27 27 26 25 25 25 22 18 16 16 13 11 10 12 13 14 13 11 8 8 8 6 9 9 7 5 4 2 2 2 3 4 4 5 6 6
25 27 30 30 28 26 25 26 26 24 24 25 25 26 22 17 14 13 12 11 11 12 11 11 10 11 7 8 7 7 8 8 7 6 3 2 2 2 4 5 6 6 6
25 27 28 28 26 23 22 22 23 20 18 19 18 19 22 22 17 13 12 12 13 13 10 10 10 10 8 8 7 6 9 9 9 8 6 5 3 2 4 4 4 5 6
25 25 23 22 24 21 19 17 18 18 18 18 18 18 19 21 22 18 15 13 13 15 13 14 11 7 6 8 7 5 10 10 10 10 7 5 5 5 6 6 5 6 5
24 25 23 19 21 22 19 18 18 19 18 22 22 22 22 23 21 19 20 19 15 15 15 14 13 7 4 4 5 3 8 11 10 9 7 7 7 7 7 8 8 7 4
24 23 24 24 22 21 21 23 18 18 20 20 22 23 26 25 25 23 22 20 18 13 15 14 14 11 7 2 3 4 5 10 12 10 9 7 7 8 8 8 7 8 6
22 24 25 24 23 20 19 19 22 26 20 18 18 19 20 23 23 22 21 20 20 17 18 19 16 15 13 7 4 3 6 6 9 11 11 10 8 8 8 8 9 7 7
21 22 21 22 23 24 23 20 20 20 23 27 25 21 22 23 22 21 21 22 20 20 22 24 22 18 16 13 8 6 4 6 7 9 11 12 11 9 9 9 10 11 9
21 22 22 23 23 23 24 24 23 21 20 24 30 27 25 22 22 21 18 20 21 19 26 25 23 20 17 14 11 8 6 5 7 9 10 12 13 12 11 10 9 9 8
20 20 21 22 24 23 22 22 22 23 23 22 23 28 29 27 26 25 20 18 19 19 22 28 26 24 19 18 14 9 8 8 8 9 11 11 12 14 14 12 11 12 12
19 21 21 21 22 24 24 23 24 23 23 24 26 28 22 23 23 22 22 20 17 21 20 12 19 19 18 16 15 12 11 10 8 9 10 13 13 14 14 13 12 12 11
18 19 21 22 23 23 23 25 23 24 24 25 28 29 22 23 25 25 27 27 22 13 12 17 17 16 17 17 16 14 11 13 12 10 10 11 13 13 13 14 13 13 12
18 20 21 22 23 24 25 25 25 24 23 24 26 27 27 27 27 26 26 26 26 26 23 16 16 20 20 19 18 15 12 12 10 10 11 11 13 14 14 15 16 15 16
20 20 21 23 23 24 25 26 27 27 27 26 22 24 26 27 28 27 26 25 24 22 23 26 25 23 23 22 20 19 17 14 12 11 11 12 13 13 14 15 16 16 16
21 22 22 23 24 24 25 26 27 28 28 27 26 24 23 24 27 27 26 24 23 21 21 23 26 28 28 25 23 22 21 19 16 14 13 13 14 16 16 16 17 17 17
23 22 24 24 25 25 24 25 27 27 27 27 26 25 25 24 23 26 26 24 22 21 20 22 24 25 27 28 27 25 24 21 22 18 16 16 17 18 17 17 17 19 19
Wind_Direction
353 351 352 359 3 9 12 15 18 18 19 20 19 12 8 6 4 350 348 320 267 259 249 231 224 221 221 222 216 213 220 216 184 184 205 213 212 224 241 256 262 267 288
359 350 345 344 346 350 359 7 14 18 18 19 20 20 21 16 5 349 345 350 337 313 309 291 252 221 221 220 235 245 242 230 232 190 210 206 212 222 239 252 262 262 265
353 350 348 348 348 345 345 353 3 13 16 16 18 19 16 15 8 1 346 339 339 338 338 308 287 255 244 223 218 206 235 240 226 221 206 216 223 220 227 240 253 259 255
359 4 2 0 357 347 342 336 346 359 6 13 16 15 15 11 11 6 3 358 347 336 327 316 305 279 256 251 231 212 216 223 226 224 205 209 223 232 228 239 249 254 248
11 11 11 8 9 5 1 348 335 340 353 355 4 11 10 10 10 7 4 2 352 341 336 329 318 294 281 264 253 236 220 212 219 219 213 215 219 219 226 240 245 255 261
1 2 360 1 4 5 6 5 355 341 330 335 348 357 3 2 1 6 10 360 359 352 343 336 330 318 283 267 259 250 241 228 225 227 231 231 241 247 251 243 236 217 269
350 351 352 352 353 355 356 357 360 357 344 322 329 337 348 352 353 357 0 5 359 3 355 342 337 326 293 272 248 243 242 246 252 259 255 254 262 269 260 242 235 221 211
343 346 345 344 345 345 346 347 349 349 351 344 323 322 322 340 340 345 351 356 2 0 356 351 342 337 317 279 261 243 237 242 253 260 270 281 282 274 269 264 250 224 226
336 338 340 340 338 338 339 339 340 340 338 341 339 317 311 315 327 333 338 345 350 352 357 358 353 346 338 290 253 242 241 250 271 281 283 285 282 260 254 228 204 188 183
329 329 331 332 333 331 331 331 331 333 330 330 327 328 309 301 311 319 324 332 336 344 353 353 351 352 347 314 263 242 241 243 258 260 288 304 307 226 188 234 214 192 172
319 320 321 324 327 328 325 325 326 327 326 324 322 320 320 305 300 305 308 311 320 334 342 344 347 341 335 329 278 252 246 254 237 223 263 310 358 127 164 194 202 215 206
322 320 319 321 324 326 324 322 323 324 325 322 323 318 316 320 310 299 297 293 300 309 326 339 340 338 329 322 298 257 237 233 216 202 200 205 200 178 180 185 205 222 222
320 321 322 323 325 325 320 321 319 324 324 320 323 319 319 320 318 310 290 285 285 291 309 318 325 330 324 305 301 258 223 219 212 203 207 230 250 209 192 186 194 203 199
326 327 327 322 325 325 319 314 311 314 317 316 317 317 318 323 322 321 312 292 274 277 290 301 307 329 323 309 309 262 235 229 224 224 221 216 226 216 198 195 188 196 207
328 328 323 320 319 318 316 311 307 301 299 301 300 300 301 303 304 312 311 309 295 276 276 285 298 294 343 337 319 274 237 236 235 233 221 209 213 221 226 218 219 206 226
328 328 324 323 319 315 313 314 314 302 299 293 288 288 292 289 294 297 296 291 284 274 256 264 275 287 289 298 320 307 262 249 245 246 233 222 216 214 218 205 202 205 214
327 327 328 324 321 315 312 311 313 320 313 306 301 296 291 291 292 294 298 298 274 261 238 250 258 270 282 285 262 283 293 283 271 255 243 235 225 217 212 212 197 205 211
333 333 331 328 325 318 312 305 303 304 309 313 317 310 302 296 291 288 283 295 297 246 231 246 255 264 278 285 284 264 254 278 272 269 255 242 230 221 213 217 212 205 217
338 338 338 330 324 320 315 310 305 296 292 298 312 316 317 308 297 289 279 273 274 257 226 241 250 259 269 279 284 264 259 256 266 264 263 253 240 225 221 222 219 213 213
341 342 339 333 330 324 313 299 293 292 294 293 295 305 314 316 310 299 289 280 275 285 233 235 250 252 260 269 276 265 234 248 257 266 264 258 251 238 230 221 214 214 214
331 336 337 335 336 331 324 309 300 292 288 289 291 304 300 295 294 293 296 298 297 278 266 270 248 251 253 255 263 263 236 229 245 258 260 267 255 240 237 229 216 218 216
324 324 327 331 332 331 327 322 308 297 290 287 291 300 297 289 286 285 283 279 275 281 281 268 260 248 247 252 255 259 254 227 234 246 255 256 263 248 240 230 215 209 207
313 318 322 326 329 328 328 329 324 315 299 295 290 288 293 293 293 290 288 285 278 269 260 260 256 252 252 254 251 248 243 226 240 241 250 250 255 254 240 230 219 205 201
303 309 315 316 320 323 324 326 326 326 319 310 297 293 287 286 289 290 290 289 284 273 259 253 251 250 250 249 247 242 237 224 238 236 242 247 248 249 248 234 226 216 204
297 299 306 308 311 314 318 323 325 327 322 315 309 305 298 291 289 289 290 288 283 276 262 252 249 247 246 245 246 243 241 230 223 236 236 243 249 254 250 237 227 216 203
294 295 300 302 304 307 310 314 319 321 318 313 309 309 308 300 289 286 284 285 283 276 267 256 250 247 246 245 245 245 244 235 218 222 234 237 244 251 243 236 227 219 204
Height
856 852 849 845 843 840 838 834 830 827 822 817 811 810 808 806 805 805 805 803 804 803 803 801 802 804 805 806 807 808 810 812 813 815 816 816 816 817 817 819 819 817 820
854 853 850 846 843 841 838 835 831 827 823 819 816 812 810 808 807 805 804 803 802 801 800 800 802 802 804 805 806 808 810 811 812 813 814 814 814 815 816 817 817 816 817
856 853 851 847 843 841 839 837 833 829 826 823 819 815 813 811 810 807 805 802 802 800 798 800 801 801 804 803 805 806 809 811 812 812 812 813 813 813 814 815 815 815 816
860 855 852 849 845 842 838 836 834 831 828 826 822 819 817 814 812 810 806 803 803 803 803 802 800 801 803 803 804 804 807 809 811 811 811 812 812 812 812 812 813 813 815
861 859 857 854 848 844 839 835 834 832 829 828 824 821 818 816 813 810 807 806 805 804 802 800 800 800 801 802 802 803 805 807 809 809 810 811 811 809 810 810 812 813 812
861 859 856 852 848 845 840 835 832 830 828 828 825 822 819 817 814 812 809 809 807 805 801 800 799 798 799 801 803 804 805 806 807 807 808 809 809 808 809 809 811 812 814
862 859 854 851 847 843 840 837 833 829 827 826 824 822 819 818 816 813 811 808 808 804 802 801 799 798 799 800 801 803 804 805 805 806 807 807 806 807 806 808 810 810 812
863 859 855 850 846 843 840 837 833 830 827 824 822 821 819 817 816 814 811 809 805 803 803 801 800 798 798 799 799 800 802 804 804 804 805 805 803 804 806 807 808 809 811
862 858 855 851 846 842 839 836 833 829 826 822 819 819 818 816 815 812 811 808 807 805 803 802 801 800 798 797 798 800 800 802 802 803 804 804 803 804 805 807 807 809 810
860 856 853 849 845 841 838 834 831 828 824 821 819 818 816 814 813 811 811 808 807 804 802 801 799 798 797 797 797 799 800 800 800 803 804 805 803 803 804 806 808 809 811
859 854 850 846 843 840 835 832 829 825 821 818 816 814 814 813 810 810 809 809 807 804 802 800 799 798 796 797 796 797 799 800 800 801 802 804 804 803 804 807 808 809 810
856 851 847 843 840 837 833 829 827 824 819 816 814 810 810 810 809 808 809 808 807 805 804 801 799 799 797 797 797 796 798 798 799 800 801 803 804 805 806 805 807 809 811
852 848 844 840 837 834 832 827 826 823 819 816 814 811 807 806 806 806 805 805 806 805 804 802 800 799 798 796 795 796 796 797 799 799 800 803 804 805 805 806 807 809 810
850 846 841 838 834 831 829 827 825 821 819 817 814 812 808 805 803 803 802 802 803 803 802 802 800 798 797 795 793 794 795 797 798 799 799 801 803 805 806 807 808 811 812
848 844 840 837 833 829 826 824 821 819 819 816 813 811 808 804 803 803 802 800 799 800 800 800 799 797 796 795 794 794 794 796 797 798 799 800 802 804 806 806 809 810 812
845 841 838 834 831 827 822 817 817 814 813 812 810 808 804 803 801 800 798 797 797 797 796 797 796 796 795 795 794 794 794 795 796 798 799 800 801 803 805 806 808 809 812
843 839 835 831 828 825 821 817 811 806 807 805 803 801 800 799 797 795 794 793 792 793 792 792 793 794 794 794 793 794 794 794 795 796 798 799 800 802 803 804 807 809 811
841 838 833 829 826 822 819 815 811 808 802 797 797 796 793 792 791 790 790 788 785 785 786 788 789 792 792 793 793 793 794 794 795 796 797 798 798 799 800 803 806 808 810
839 834 831 827 824 820 816 812 809 805 801 797 792 789 788 785 783 783 784 784 782 780 780 783 785 788 789 790 791 792 793 793 793 794 794 796 797 798 799 801 804 807 808
836 832 828 824 820 816 813 810 806 802 798 794 790 787 783 781 777 775 776 777 777 777 775 776 779 783 785 787 788 789 790 791 792 792 793 794 795 796 798 799 802 804 806
833 829 826 821 817 813 809 806 802 798 794 790 786 783 782 780 776 774 772 772 772 772 772 773 775 777 780 783 784 785 787 788 789 790 791 792 793 794 796 798 800 802 805
829 826 822 819 814 810 806 803 799 794 790 785 780 778 777 775 772 770 768 767 768 768 768 769 770 772 775 778 781 782 783 784 786 787 789 790 791 792 794 796 798 800 803
825 822 818 814 811 807 802 798 794 790 786 781 777 773 770 768 765 763 761 761 761 762 763 764 764 766 770 773 776 778 779 781 783 785 787 788 789 790 792 794 796 798 801
820 817 814 810 806 803 798 793 789 785 781 777 772 768 764 762 760 757 756 754 754 755 756 757 758 760 763 766 769 772 775 778 781 782 784 785 787 788 790 792 794 796 798
814 811 808 805 801 798 794 790 785 781 776 771 767 763 759 756 753 751 750 749 748 748 749 750 751 753 756 759 763 766 769 773 776 779 780 782 783 785 787 789 791 794 796
807 804 802 799 796 793 789 785 781 776 772 767 762 757 753 750 747 745 743 742 742 742 742 743 744 747 749 752 756 760 763 766 770 774 777 779 780 782 784 786 789 791 794